Home   Weather   Tabatinga   Past weeks

Flag for Brazil Past Weather in Tabatinga, Amazonas, Brazil — Yesterday and Last 2 Weeks

Now
75 °F

Passing clouds.


Feels Like: 73 °F
Forecast: 73 / 88 °F
Wind: No wind

Location: Leticia / Vasquez Cobo

Current Time: Sep 28, 2016 at 3:42:52 AM

Latest Report: Sep 28, 2016 at 3:00 AM


Visibility: N/A

Pressure: 29.85 "Hg

Humidity: 100%

Dew Point: 75 °F

Location of TabatingaLocation

Past Weather in Tabatinga — Graph

°F

Tabatinga Temperature Yesterday

Maximum temperature yesterday: 93 °F (at 3:00 PM)
Minimum temperature yesterday: 73 °F (at 1:00 AM)
Average temperature yesterday: 81 °F

High & Low Weather Summary for the Past Weeks

 TemperatureHumidityPressure
High93 °F (Sep 13, 3:00 PM)100% (Sep 13, 2:00 AM)30.03 "Hg (Sep 13, 2:00 AM)
Low70 °F (Sep 16, 6:00 AM)47% (Sep 16, 2:00 PM)29.72 "Hg (Sep 27, 4:00 PM)
Average80 °F84%29.89 "Hg
* Reported Sep 13 2:00 AM — Sep 28 2:00 AM, Tabatinga, Weather by CustomWeather, © 2016

Note: Actual official high and low records may vary slightly from our data, if they occured in-between our weather recording intervals... More about our weather records

Advertising

Tabatinga Weather History for the Previous 24 Hours

Scroll right to see more
 ConditionsComfort  
Time TempWeatherWind HumidityBarometerVisibility
2:00 AM
Wed, Sep 28
77 °FPassing clouds.No wind94%29.86 "HgN/A
1:00 AM77 °FPassing clouds.No wind94%29.87 "HgN/A
12:00 AM77 °FPassing clouds.No wind94%29.89 "HgN/A
11:00 PM
Tue, Sep 27
79 °FPassing clouds.No wind89%29.89 "HgN/A
10:00 PM79 °FPassing clouds.No wind89%29.88 "HgN/A
9:00 PM79 °FPassing clouds.No wind89%29.87 "HgN/A
8:00 PM81 °FPartly cloudy.No wind79%29.84 "HgN/A
7:00 PM84 °FPassing clouds.No wind79%29.79 "HgN/A
6:00 PM90 °FPassing clouds.No wind63%29.77 "HgN/A
5:00 PM90 °FScattered clouds.No wind63%29.73 "HgN/A
4:00 PM91 °FScattered clouds.No wind56%29.72 "HgN/A
3:00 PM93 °FScattered clouds.3 mph53%29.73 "HgN/A
2:00 PM91 °FScattered clouds.No wind59%29.80 "HgN/A
1:00 PM90 °FScattered clouds.No wind59%29.86 "HgN/A
12:00 PM88 °FScattered clouds.3 mph70%29.89 "HgN/A
11:00 AM86 °FPartly sunny.2 mph70%29.92 "HgN/A
10:00 AM81 °FPartly sunny.No wind84%29.94 "HgN/A
9:00 AM77 °FBroken clouds.No wind94%29.95 "HgN/A
8:00 AM75 °FFog.No wind94%29.94 "Hg3 mi
7:00 AM75 °FFog.No wind94%29.91 "Hg1 mi
6:00 AM73 °FBroken clouds.No wind100%29.88 "HgN/A
5:00 AM73 °FClear.No wind94%29.85 "Hg10 mi
4:00 AM73 °FClear.No wind94%29.84 "Hg10 mi
3:00 AM73 °FClear.No wind94%29.85 "Hg10 mi
Weather by CustomWeather, © 2016

See weather overviewHow to use our weather pages